New Nada — 3ELP9 — position and weather

sailwx.info

Track history (hours):
 
Tides and Currents Weather Stations Pressure Air Temp Water Temp Dewpoint Dewpoint Depression Visibility Wind Speed Wind Dir Waves Ship Positions

New Nada

Last reported at 2017-Mar-02 17:25 UTC. Time now 2017-Mar-25 09:57 UTC.
Position N 48°32' W 126°38'.
Warning: this ship's position is 22 days out of date.

Length 180 m; beam 32.2 m.

Type: Cargo ship. MMSI: 356005000.

Date/timePositionNaut miles runAvg speedWind from/ knotsBaromVisibWave heightAir tempDewpointWater temp
2017-Mar-02 17:25N 48°32' W 126°38'1011.1
2017-Mar-02 16:33N 48°31' W 126°24'1313.1
2017-Mar-02 15:33N 48°31' W 126°04'1313.1
2017-Mar-02 14:33N 48°31' W 125°44'1413.5
2017-Mar-02 13:33N 48°31' W 125°24'1312.6
2017-Mar-02 12:33N 48°31' W 125°05'1212.3
2017-Mar-02 11:34N 48°30' W 124°46'1212.4
2017-Mar-02 10:34N 48°26' W 124°29'1312.8
2017-Mar-02 09:33N 48°21' W 124°11'1413.8
2017-Mar-02 08:33N 48°17' W 123°51'1514.5
2017-Mar-02 07:33N 48°17' W 123°30'1212.0
2017-Mar-02 06:33N 48°24' W 123°15'1616.2
2017-Mar-02 05:33N 48°40' W 123°15'1313.2
2017-Mar-02 04:33N 48°50' W 123°02'1615.5
2017-Mar-02 03:34N 49°01' W 123°19'8 7.8
2017-Mar-02 02:33N 49°07' W 123°12'1110.8
2017-Mar-02 01:33N 49°10' W 122°56'1 1.1
2017-Mar-02 00:31N 49°11' W 122°55'0 0.0
2017-Mar-01 23:31N 49°11' W 122°55'0 0.0
2017-Mar-01 22:31N 49°11' W 122°55'0 0.0
2017-Mar-01 21:31N 49°11' W 122°55'0 0.0
2017-Mar-01 20:31N 49°11' W 122°55'0 0.0
2017-Mar-01 19:31N 49°11' W 122°55'0 0.0
2017-Mar-01 18:31N 49°11' W 122°55'0 0.0
2017-Mar-01 17:28N 49°11' W 122°55'0 0.0
2017-Mar-01 16:31N 49°11' W 122°55'0 0.0
2017-Mar-01 15:31N 49°11' W 122°55'0 0.0
2017-Mar-01 14:31N 49°11' W 122°55'0 0.0
2017-Mar-01 13:31N 49°11' W 122°55'0 0.0
2017-Mar-01 12:31N 49°11' W 122°55'0 0.0
2017-Mar-01 11:31N 49°11' W 122°55'0 0.0
2017-Mar-01 10:28N 49°11' W 122°55'0 0.0
2017-Mar-01 09:31N 49°11' W 122°55'0 0.0
2017-Mar-01 08:31N 49°11' W 122°55'0 0.0
2017-Mar-01 07:31N 49°11' W 122°55'4 4.2
2017-Mar-01 06:33N 49°09' W 123°01'1010.0
2017-Mar-01 05:34N 49°07' W 123°16'6 6.2
2017-Mar-01 04:33N 49°01' W 123°16'1514.6
2017-Mar-01 03:33N 48°50' W 123°01'1313.4
2017-Mar-01 02:34N 48°41' W 123°15'1515.3
2017-Mar-01 01:34N 48°25' W 123°11'1111.1
2017-Mar-01 00:33N 48°19' W 123°25'7 7.1
2017-Feb-28 23:33N 48°14' W 123°32'8 8.2
2017-Feb-28 22:33N 48°14' W 123°44'9 9.5
2017-Feb-28 21:33N 48°15' W 123°58'1110.5
2017-Feb-28 20:33N 48°19' W 124°13'1010.4
2017-Feb-28 19:33N 48°23' W 124°27'1010.1
2017-Feb-28 18:33N 48°28' W 124°40'1010.3
2017-Feb-28 17:33N 48°29' W 124°56'8 7.7
2017-Feb-28 16:33N 48°23' W 125°04'1010.0
2017-Feb-28 15:32N 48°14' W 125°12'1111.2
2017-Feb-28 14:31N 48°04' W 125°20'5510.4
2017-Feb-28 09:12N 47°10' W 125°01'710.5
2017-Feb-28 08:33N 47°04' W 124°60'2 2.1
2017-Feb-28 07:33N 47°02' W 125°02'2 1.5
2017-Feb-28 06:33N 47°03' W 125°03'2 1.6
2017-Feb-28 05:33N 47°04' W 125°05'2 1.7
2017-Feb-28 04:31N 47°06' W 125°06'1 1.3
2017-Feb-28 03:26N 47°07' W 125°08'1 1.3
2017-Feb-28 02:32N 47°08' W 125°09'10 4.9
2017-Feb-28 00:33N 47°03' W 124°56'1010.0
2017-Feb-27 23:32N 46°59' W 124°42'1 0.7
2017-Feb-27 22:33N 46°59' W 124°42'2 1.7
2017-Feb-27 21:33N 46°59' W 124°44'2 1.6
2017-Feb-27 20:34N 46°59' W 124°46'2 1.6
2017-Feb-27 19:34N 46°60' W 124°49'2 1.5
2017-Feb-27 18:34N 47°00' W 124°50'2 1.6
2017-Feb-27 17:33N 47°02' W 124°52'2 1.6
2017-Feb-27 16:33N 47°03' W 124°54'1 1.4
2017-Feb-27 15:33N 47°04' W 124°56'1 1.4
2017-Feb-27 14:33N 47°04' W 124°57'1 1.3
2017-Feb-27 13:33N 47°05' W 124°58'1 1.1
2017-Feb-27 12:34N 47°06' W 124°59'1 1.0
2017-Feb-27 11:32N 47°07' W 124°60'1 0.7
2017-Feb-27 10:32N 47°07' W 125°01'8 2.0
2017-Feb-27 06:23N 46°60' W 124°56'8 9.1
2017-Feb-27 05:33N 46°55' W 124°48'2 1.5
2017-Feb-27 04:33N 46°54' W 124°50'3 1.9
2017-Feb-27 03:12N 46°55' W 124°53'1 1.8
2017-Feb-27 02:33N 46°56' W 124°54'2 1.9
2017-Feb-27 01:33N 46°58' W 124°55'2 1.8
2017-Feb-27 00:34N 46°59' W 124°56'1 1.4
2017-Feb-26 23:33N 47°01' W 124°56'1 0.9
2017-Feb-26 22:33N 47°02' W 124°56'1 0.7
2017-Feb-26 21:33N 47°01' W 124°56'0 0.5
2017-Feb-26 20:33N 47°01' W 124°55'1 0.5
2017-Feb-26 19:33N 47°00' W 124°55'0 0.2
2017-Feb-26 18:33N 47°00' W 124°55'1 0.7
2017-Feb-26 17:33N 47°01' W 124°56'2 2.0
2017-Feb-26 16:33N 47°03' W 124°56'2 2.1
2017-Feb-26 15:33N 47°05' W 124°57'2 1.7
2017-Feb-26 14:33N 47°07' W 124°58'2 1.8
2017-Feb-26 13:33N 47°07' W 125°00'2 1.6
2017-Feb-26 12:33N 47°08' W 125°02'2 1.7
2017-Feb-26 11:32N 47°09' W 125°05'2 1.7
2017-Feb-26 10:32N 47°09' W 125°07'7 1.4
2017-Feb-26 05:33N 47°02' W 125°06'1 1.1
2017-Feb-26 04:33N 47°02' W 125°05'2 1.8
2017-Feb-26 03:33N 47°03' W 125°07'2 1.7
2017-Feb-26 02:33N 47°04' W 125°09'1 1.3
2017-Feb-26 01:33N 47°04' W 125°11'1 1.4
2017-Feb-26 00:32N 47°05' W 125°13'2 1.2
2017-Feb-25 23:14N 47°06' W 125°14'1 1.1
2017-Feb-25 22:33N 47°07' W 125°15'1 0.6
2017-Feb-25 21:31N 47°07' W 125°16'1 1.0
2017-Feb-25 20:12N 47°07' W 125°17'1 1.0
2017-Feb-25 19:29N 47°07' W 125°18'1 1.1
2017-Feb-25 18:24N 47°06' W 125°19'1 1.2
2017-Feb-25 17:26N 47°05' W 125°21'3 1.0
2017-Feb-25 14:33N 47°03' W 125°23'1111.4
2017-Feb-25 13:33N 46°54' W 125°13'1211.8
2017-Feb-25 12:34N 46°45' W 125°02'1212.0
2017-Feb-25 11:34N 46°36' W 124°50'1212.3
2017-Feb-25 10:33N 46°30' W 124°34'1312.6
2017-Feb-25 09:33N 46°22' W 124°20'1312.9
2017-Feb-25 08:34N 46°10' W 124°11'9 9.1
2017-Feb-25 07:33N 46°14' W 123°59'9 9.0
2017-Feb-25 06:33N 46°13' W 123°46'1313.0
2017-Feb-25 05:34N 46°16' W 123°28'1111.1
2017-Feb-25 04:34N 46°10' W 123°14'1313.3
2017-Feb-25 03:33N 46°06' W 122°56'1211.8
2017-Feb-25 02:33N 45°55' W 122°49'1313.0
2017-Feb-25 01:33N 45°42' W 122°46'6 5.9
2017-Feb-25 00:31N 45°36' W 122°47'0 0.0
2017-Feb-24 23:22N 45°36' W 122°47'0 0.0
2017-Feb-24 22:25N 45°36' W 122°47'0 0.0
2017-Feb-24 21:31N 45°36' W 122°47'0 0.0
2017-Feb-24 20:31N 45°36' W 122°47'0 0.0
2017-Feb-24 19:31N 45°36' W 122°47'0 0.0
2017-Feb-24 18:31N 45°36' W 122°47'0 0.0
2017-Feb-24 17:31N 45°36' W 122°47'0 0.0
2017-Feb-24 16:31N 45°36' W 122°47'0 0.0
2017-Feb-24 15:31N 45°36' W 122°47'0 0.0
2017-Feb-24 14:31N 45°36' W 122°47'0 0.0
2017-Feb-24 13:31N 45°36' W 122°47'1 0.5
2017-Feb-24 12:33N 45°36' W 122°47'6 6.3
2017-Feb-24 11:33N 45°43' W 122°46'1110.6
2017-Feb-24 10:33N 45°53' W 122°48'1010.0
2017-Feb-24 09:33N 46°03' W 122°53'9 9.2
2017-Feb-24 08:33N 46°09' W 123°02'1110.7
2017-Feb-24 07:33N 46°09' W 123°18'10 9.5
2017-Feb-24 06:33N 46°16' W 123°27'1212.2
2017-Feb-24 05:33N 46°13' W 123°45'10 9.9
2017-Feb-24 04:33N 46°14' W 123°59'1010.2
2017-Feb-24 03:33N 46°10' W 124°12'9 9.3
2017-Feb-24 02:33N 46°05' W 124°24'10 9.7
2017-Feb-24 01:33N 46°02' W 124°37'1111.2
2017-Feb-24 00:33N 46°01' W 124°53'1111.3
2017-Feb-23 23:33N 46°00' W 125°09'1111.4
2017-Feb-23 22:33N 45°58' W 125°26'13 6.3
2017-Feb-23 20:27N 45°55' W 125°44'  
Track history (hours):
 
Tides and Currents Weather Stations Pressure Air Temp Water Temp Dewpoint Dewpoint Depression Visibility Wind Speed Wind Dir Waves Ship Positions

New Nada

Last reported at 2017-Mar-02 17:25 UTC. Time now 2017-Mar-25 09:57 UTC.
Position N 48°32' W 126°38'.
Warning: this ship's position is 22 days out of date.

Length 180 m; beam 32.2 m.

Type: Cargo ship. MMSI: 356005000.

Date/timePositionNaut miles runAvg speedWind from/ knotsBaromVisibWave heightAir tempDewpointWater temp
2017-Mar-02 17:25N 48°32' W 126°38'1011.1
2017-Mar-02 16:33N 48°31' W 126°24'1313.1
2017-Mar-02 15:33N 48°31' W 126°04'1313.1
2017-Mar-02 14:33N 48°31' W 125°44'1413.5
2017-Mar-02 13:33N 48°31' W 125°24'1312.6
2017-Mar-02 12:33N 48°31' W 125°05'1212.3
2017-Mar-02 11:34N 48°30' W 124°46'1212.4
2017-Mar-02 10:34N 48°26' W 124°29'1312.8
2017-Mar-02 09:33N 48°21' W 124°11'1413.8
2017-Mar-02 08:33N 48°17' W 123°51'1514.5
2017-Mar-02 07:33N 48°17' W 123°30'1212.0
2017-Mar-02 06:33N 48°24' W 123°15'1616.2
2017-Mar-02 05:33N 48°40' W 123°15'1313.2
2017-Mar-02 04:33N 48°50' W 123°02'1615.5
2017-Mar-02 03:34N 49°01' W 123°19'8 7.8
2017-Mar-02 02:33N 49°07' W 123°12'1110.8
2017-Mar-02 01:33N 49°10' W 122°56'1 1.1
2017-Mar-02 00:31N 49°11' W 122°55'0 0.0
2017-Mar-01 23:31N 49°11' W 122°55'0 0.0
2017-Mar-01 22:31N 49°11' W 122°55'0 0.0
2017-Mar-01 21:31N 49°11' W 122°55'0 0.0
2017-Mar-01 20:31N 49°11' W 122°55'0 0.0
2017-Mar-01 19:31N 49°11' W 122°55'0 0.0
2017-Mar-01 18:31N 49°11' W 122°55'0 0.0
2017-Mar-01 17:28N 49°11' W 122°55'0 0.0
2017-Mar-01 16:31N 49°11' W 122°55'0 0.0
2017-Mar-01 15:31N 49°11' W 122°55'0 0.0
2017-Mar-01 14:31N 49°11' W 122°55'0 0.0
2017-Mar-01 13:31N 49°11' W 122°55'0 0.0
2017-Mar-01 12:31N 49°11' W 122°55'0 0.0
2017-Mar-01 11:31N 49°11' W 122°55'0 0.0
2017-Mar-01 10:28N 49°11' W 122°55'0 0.0
2017-Mar-01 09:31N 49°11' W 122°55'0 0.0
2017-Mar-01 08:31N 49°11' W 122°55'0 0.0
2017-Mar-01 07:31N 49°11' W 122°55'4 4.2
2017-Mar-01 06:33N 49°09' W 123°01'1010.0
2017-Mar-01 05:34N 49°07' W 123°16'6 6.2
2017-Mar-01 04:33N 49°01' W 123°16'1514.6
2017-Mar-01 03:33N 48°50' W 123°01'1313.4
2017-Mar-01 02:34N 48°41' W 123°15'1515.3
2017-Mar-01 01:34N 48°25' W 123°11'1111.1
2017-Mar-01 00:33N 48°19' W 123°25'7 7.1
2017-Feb-28 23:33N 48°14' W 123°32'8 8.2
2017-Feb-28 22:33N 48°14' W 123°44'9 9.5
2017-Feb-28 21:33N 48°15' W 123°58'1110.5
2017-Feb-28 20:33N 48°19' W 124°13'1010.4
2017-Feb-28 19:33N 48°23' W 124°27'1010.1
2017-Feb-28 18:33N 48°28' W 124°40'1010.3
2017-Feb-28 17:33N 48°29' W 124°56'8 7.7
2017-Feb-28 16:33N 48°23' W 125°04'1010.0
2017-Feb-28 15:32N 48°14' W 125°12'1111.2
2017-Feb-28 14:31N 48°04' W 125°20'5510.4
2017-Feb-28 09:12N 47°10' W 125°01'710.5
2017-Feb-28 08:33N 47°04' W 124°60'2 2.1
2017-Feb-28 07:33N 47°02' W 125°02'2 1.5
2017-Feb-28 06:33N 47°03' W 125°03'2 1.6
2017-Feb-28 05:33N 47°04' W 125°05'2 1.7
2017-Feb-28 04:31N 47°06' W 125°06'1 1.3
2017-Feb-28 03:26N 47°07' W 125°08'1 1.3
2017-Feb-28 02:32N 47°08' W 125°09'10 4.9
2017-Feb-28 00:33N 47°03' W 124°56'1010.0
2017-Feb-27 23:32N 46°59' W 124°42'1 0.7
2017-Feb-27 22:33N 46°59' W 124°42'2 1.7
2017-Feb-27 21:33N 46°59' W 124°44'2 1.6
2017-Feb-27 20:34N 46°59' W 124°46'2 1.6
2017-Feb-27 19:34N 46°60' W 124°49'2 1.5
2017-Feb-27 18:34N 47°00' W 124°50'2 1.6
2017-Feb-27 17:33N 47°02' W 124°52'2 1.6
2017-Feb-27 16:33N 47°03' W 124°54'1 1.4
2017-Feb-27 15:33N 47°04' W 124°56'1 1.4
2017-Feb-27 14:33N 47°04' W 124°57'1 1.3
2017-Feb-27 13:33N 47°05' W 124°58'1 1.1
2017-Feb-27 12:34N 47°06' W 124°59'1 1.0
2017-Feb-27 11:32N 47°07' W 124°60'1 0.7
2017-Feb-27 10:32N 47°07' W 125°01'8 2.0
2017-Feb-27 06:23N 46°60' W 124°56'8 9.1
2017-Feb-27 05:33N 46°55' W 124°48'2 1.5
2017-Feb-27 04:33N 46°54' W 124°50'3 1.9
2017-Feb-27 03:12N 46°55' W 124°53'1 1.8
2017-Feb-27 02:33N 46°56' W 124°54'2 1.9
2017-Feb-27 01:33N 46°58' W 124°55'2 1.8
2017-Feb-27 00:34N 46°59' W 124°56'1 1.4
2017-Feb-26 23:33N 47°01' W 124°56'1 0.9
2017-Feb-26 22:33N 47°02' W 124°56'1 0.7
2017-Feb-26 21:33N 47°01' W 124°56'0 0.5
2017-Feb-26 20:33N 47°01' W 124°55'1 0.5
2017-Feb-26 19:33N 47°00' W 124°55'0 0.2
2017-Feb-26 18:33N 47°00' W 124°55'1 0.7
2017-Feb-26 17:33N 47°01' W 124°56'2 2.0
2017-Feb-26 16:33N 47°03' W 124°56'2 2.1
2017-Feb-26 15:33N 47°05' W 124°57'2 1.7
2017-Feb-26 14:33N 47°07' W 124°58'2 1.8
2017-Feb-26 13:33N 47°07' W 125°00'2 1.6
2017-Feb-26 12:33N 47°08' W 125°02'2 1.7
2017-Feb-26 11:32N 47°09' W 125°05'2 1.7
2017-Feb-26 10:32N 47°09' W 125°07'7 1.4
2017-Feb-26 05:33N 47°02' W 125°06'1 1.1
2017-Feb-26 04:33N 47°02' W 125°05'2 1.8
2017-Feb-26 03:33N 47°03' W 125°07'2 1.7
2017-Feb-26 02:33N 47°04' W 125°09'1 1.3
2017-Feb-26 01:33N 47°04' W 125°11'1 1.4
2017-Feb-26 00:32N 47°05' W 125°13'2 1.2
2017-Feb-25 23:14N 47°06' W 125°14'1 1.1
2017-Feb-25 22:33N 47°07' W 125°15'1 0.6
2017-Feb-25 21:31N 47°07' W 125°16'1 1.0
2017-Feb-25 20:12N 47°07' W 125°17'1 1.0
2017-Feb-25 19:29N 47°07' W 125°18'1 1.1
2017-Feb-25 18:24N 47°06' W 125°19'1 1.2
2017-Feb-25 17:26N 47°05' W 125°21'3 1.0
2017-Feb-25 14:33N 47°03' W 125°23'1111.4
2017-Feb-25 13:33N 46°54' W 125°13'1211.8
2017-Feb-25 12:34N 46°45' W 125°02'1212.0
2017-Feb-25 11:34N 46°36' W 124°50'1212.3
2017-Feb-25 10:33N 46°30' W 124°34'1312.6
2017-Feb-25 09:33N 46°22' W 124°20'1312.9
2017-Feb-25 08:34N 46°10' W 124°11'9 9.1
2017-Feb-25 07:33N 46°14' W 123°59'9 9.0
2017-Feb-25 06:33N 46°13' W 123°46'1313.0
2017-Feb-25 05:34N 46°16' W 123°28'1111.1
2017-Feb-25 04:34N 46°10' W 123°14'1313.3
2017-Feb-25 03:33N 46°06' W 122°56'1211.8
2017-Feb-25 02:33N 45°55' W 122°49'1313.0
2017-Feb-25 01:33N 45°42' W 122°46'6 5.9
2017-Feb-25 00:31N 45°36' W 122°47'0 0.0
2017-Feb-24 23:22N 45°36' W 122°47'0 0.0
2017-Feb-24 22:25N 45°36' W 122°47'0 0.0
2017-Feb-24 21:31N 45°36' W 122°47'0 0.0
2017-Feb-24 20:31N 45°36' W 122°47'0 0.0
2017-Feb-24 19:31N 45°36' W 122°47'0 0.0
2017-Feb-24 18:31N 45°36' W 122°47'0 0.0
2017-Feb-24 17:31N 45°36' W 122°47'0 0.0
2017-Feb-24 16:31N 45°36' W 122°47'0 0.0
2017-Feb-24 15:31N 45°36' W 122°47'0 0.0
2017-Feb-24 14:31N 45°36' W 122°47'0 0.0
2017-Feb-24 13:31N 45°36' W 122°47'1 0.5
2017-Feb-24 12:33N 45°36' W 122°47'6 6.3
2017-Feb-24 11:33N 45°43' W 122°46'1110.6
2017-Feb-24 10:33N 45°53' W 122°48'1010.0
2017-Feb-24 09:33N 46°03' W 122°53'9 9.2
2017-Feb-24 08:33N 46°09' W 123°02'1110.7
2017-Feb-24 07:33N 46°09' W 123°18'10 9.5
2017-Feb-24 06:33N 46°16' W 123°27'1212.2
2017-Feb-24 05:33N 46°13' W 123°45'10 9.9
2017-Feb-24 04:33N 46°14' W 123°59'1010.2
2017-Feb-24 03:33N 46°10' W 124°12'9 9.3
2017-Feb-24 02:33N 46°05' W 124°24'10 9.7
2017-Feb-24 01:33N 46°02' W 124°37'1111.2
2017-Feb-24 00:33N 46°01' W 124°53'1111.3
2017-Feb-23 23:33N 46°00' W 125°09'1111.4
2017-Feb-23 22:33N 45°58' W 125°26'13 6.3
2017-Feb-23 20:27N 45°55' W 125°44'  

Dump ship's entire track history